| time (UTC) | temp F | wind direction | speed MPH | gust MPH | rain 1hr in | rain 24hr in | rain mn in | humidity % | barometer mb |
| 20260906004505 | 69 | 315 | 1.0 | 3.0 | 0.00 | 0.06 | 0.01 | 82 | 1013.0 |
| 20260906004008 | 69 | 315 | 2.0 | 3.0 | 0.00 | 0.06 | 0.01 | 82 | 1013.1 |
| 20260906003505 | 69 | 315 | 0.0 | 2.0 | 0.00 | 0.06 | 0.01 | 81 | 1013.0 |
| 20260906003006 | 70 | 315 | 0.0 | 0.0 | 0.00 | 0.06 | 0.01 | 81 | 1012.9 |
| 20260906002506 | 70 | 315 | 0.0 | 0.0 | 0.00 | 0.06 | 0.01 | 80 | 1012.9 |
| 20260906002007 | 70 | 315 | 0.0 | 0.0 | 0.00 | 0.06 | 0.01 | 80 | 1012.7 |
| 20260906001505 | 70 | 315 | 0.0 | 0.0 | 0.00 | 0.06 | 0.01 | 79 | 1012.7 |
| 20260906000505 | 70 | 315 | 0.0 | 0.0 | 0.00 | 0.06 | 0.01 | 79 | 1012.5 |
| 20260905235506 | 71 | 315 | 0.0 | 0.0 | 0.00 | 0.06 | 0.01 | 79 | 1012.4 |
| 20260905235006 | 71 | 315 | 0.0 | 0.0 | 0.00 | 0.06 | 0.01 | 79 | 1012.5 |
| 20260905234506 | 71 | 315 | 0.0 | 0.0 | 0.00 | 0.06 | 0.01 | 79 | 1012.3 |
| 20260905234011 | 71 | 315 | 0.0 | 0.0 | 0.00 | 0.06 | 0.01 | 79 | 1012.3 |
| 20260905233505 | 71 | 315 | 0.0 | 0.0 | 0.00 | 0.06 | 0.01 | 78 | 1012.2 |
| 20260905233006 | 71 | 315 | 0.0 | 0.0 | 0.00 | 0.06 | 0.01 | 78 | 1012.1 |
| 20260905232006 | 72 | 315 | 0.0 | 0.0 | 0.00 | 0.06 | 0.01 | 77 | 1011.9 |
| 20260905231507 | 72 | 315 | 0.0 | 0.0 | 0.00 | 0.06 | 0.01 | 76 | 1012.0 |
| 20260905231006 | 72 | 315 | 0.0 | 0.0 | 0.00 | 0.06 | 0.01 | 75 | 1012.0 |
| 20260905230505 | 73 | 315 | 0.0 | 0.0 | 0.00 | 0.06 | 0.01 | 74 | 1012.0 |
| 20260905230008 | 73 | 315 | 0.0 | 0.0 | 0.00 | 0.06 | 0.01 | 73 | 1012.0 |
| 20260905225505 | 74 | 315 | 0.0 | 0.0 | 0.00 | 0.06 | 0.01 | 72 | 1012.1 |
| 20260905225006 | 74 | 315 | 0.0 | 0.0 | 0.00 | 0.06 | 0.01 | 70 | 1012.0 |
| 20260905224507 | 74 | 315 | 0.0 | 0.0 | 0.00 | 0.06 | 0.01 | 70 | 1011.9 |
| 20260905224006 | 75 | 315 | 0.0 | 0.0 | 0.00 | 0.06 | 0.01 | 69 | 1011.8 |
| 20260905223505 | 75 | 315 | 0.0 | 0.0 | 0.00 | 0.06 | 0.01 | 67 | 1012.0 |
| 20260905223008 | 76 | 315 | 0.0 | 0.0 | 0.00 | 0.06 | 0.01 | 67 | 1011.9 |
| 20260905222505 | 76 | 315 | 0.0 | 0.0 | 0.00 | 0.06 | 0.01 | 65 | 1011.8 |
| 20260905222006 | 76 | 315 | 0.0 | 2.0 | 0.00 | 0.06 | 0.01 | 65 | 1011.8 |
| 20260905221507 | 77 | 315 | 0.0 | 2.0 | 0.00 | 0.06 | 0.01 | 64 | 1011.7 |
| 20260905221007 | 77 | 338 | 0.0 | 0.0 | 0.00 | 0.06 | 0.01 | 64 | 1011.7 |
| 20260905220505 | 77 | 338 | 0.0 | 0.0 | 0.00 | 0.06 | 0.01 | 63 | 1011.7 |
| 20260905215006 | 78 | 339 | 1.0 | 4.0 | 0.00 | 0.06 | 0.01 | 59 | 1011.7 |
| 20260905214507 | 79 | 295 | 2.0 | 4.0 | 0.00 | 0.06 | 0.01 | 59 | 1011.6 |
| 20260905213505 | 78 | 266 | 0.0 | 1.0 | 0.00 | 0.06 | 0.01 | 65 | 1011.5 |
| 20260905213011 | 79 | 266 | 0.0 | 3.0 | 0.00 | 0.06 | 0.01 | 63 | 1011.6 |
| 20260905212505 | 79 | 296 | 1.0 | 3.0 | 0.00 | 0.06 | 0.01 | 61 | 1011.6 |
| 20260905212006 | 80 | 292 | 0.0 | 2.0 | 0.00 | 0.06 | 0.01 | 61 | 1011.7 |
| 20260905211506 | 80 | 292 | 0.0 | 4.0 | 0.00 | 0.06 | 0.01 | 62 | 1011.7 |
| 20260905211007 | 80 | 333 | 1.0 | 4.0 | 0.00 | 0.06 | 0.01 | 62 | 1011.6 |
| 20260905210505 | 80 | 342 | 2.0 | 9.0 | 0.00 | 0.06 | 0.01 | 61 | 1011.6 |
| 20260905210010 | 80 | 294 | 2.0 | 9.0 | 0.00 | 0.06 | 0.01 | 61 | 1011.5 |
| 20260905205505 | 79 | 304 | 2.0 | 7.0 | 0.00 | 0.06 | 0.01 | 61 | 1011.5 |
| 20260905205006 | 79 | 306 | 1.0 | 5.0 | 0.00 | 0.06 | 0.01 | 59 | 1011.5 |
| 20260905204507 | 80 | 259 | 1.0 | 5.0 | 0.00 | 0.06 | 0.01 | 61 | 1011.5 |
| 20260905204006 | 80 | 5 | 0.0 | 5.0 | 0.00 | 0.06 | 0.01 | 62 | 1011.4 |
| 20260905203007 | 78 | 327 | 2.0 | 4.0 | 0.00 | 0.06 | 0.01 | 63 | 1011.5 |
| 20260905201505 | 80 | 341 | 2.0 | 4.0 | 0.00 | 0.06 | 0.01 | 60 | 1011.5 |
| 20260905201007 | 79 | 154 | 1.0 | 5.0 | 0.00 | 0.06 | 0.01 | 66 | 1011.5 |
| 20260905200505 | 79 | 22 | 1.0 | 4.0 | 0.00 | 0.06 | 0.01 | 64 | 1011.6 |
| 20260905200008 | 80 | 57 | 1.0 | 7.0 | 0.00 | 0.06 | 0.01 | 64 | 1011.5 |
| 20260905195509 | 81 | 258 | 1.0 | 7.0 | 0.00 | 0.06 | 0.01 | 58 | 1011.6 |
| 20260905195008 | 80 | 279 | 4.0 | 7.0 | 0.00 | 0.06 | 0.01 | 57 | 1011.6 |
| 20260905194507 | 80 | 5 | 1.0 | 5.0 | 0.00 | 0.06 | 0.01 | 62 | 1011.6 |
| 20260905194006 | 80 | 294 | 1.0 | 7.0 | 0.00 | 0.06 | 0.01 | 59 | 1011.7 |
| 20260905193505 | 81 | 301 | 2.0 | 7.0 | 0.00 | 0.06 | 0.01 | 59 | 1011.7 |
| 20260905193007 | 80 | 322 | 1.0 | 5.0 | 0.00 | 0.06 | 0.01 | 62 | 1011.9 |
| 20260905192505 | 80 | 331 | 0.0 | 8.0 | 0.00 | 0.06 | 0.01 | 60 | 1011.9 |
| 20260905192006 | 80 | 38 | 3.0 | 10.0 | 0.00 | 0.06 | 0.01 | 60 | 1011.9 |
| 20260905191006 | 80 | 337 | 2.0 | 5.0 | 0.00 | 0.06 | 0.01 | 61 | 1012.1 |
| 20260905190506 | 80 | 304 | 1.0 | 5.0 | 0.00 | 0.06 | 0.01 | 63 | 1012.1 |
| 20260905190008 | 79 | 289 | 2.0 | 4.0 | 0.00 | 0.06 | 0.01 | 66 | 1012.0 |
| 20260905185507 | 78 | 93 | 0.0 | 6.0 | 0.00 | 0.06 | 0.01 | 69 | 1012.1 |
| 20260905185006 | 79 | 321 | 3.0 | 6.0 | 0.00 | 0.06 | 0.01 | 62 | 1012.2 |
| 20260905184507 | 78 | 39 | 0.0 | 6.0 | 0.00 | 0.06 | 0.01 | 64 | 1012.2 |
| 20260905184006 | 80 | 290 | 3.0 | 6.0 | 0.00 | 0.06 | 0.01 | 62 | 1012.1 |
| 20260905183505 | 79 | 300 | 1.0 | 4.0 | 0.00 | 0.06 | 0.01 | 63 | 1012.1 |
| 20260905183007 | 78 | 337 | 0.0 | 6.0 | 0.00 | 0.06 | 0.01 | 66 | 1012.1 |
| 20260905182505 | 80 | 341 | 1.0 | 6.0 | 0.00 | 0.06 | 0.01 | 67 | 1012.1 |
| 20260905182007 | 80 | 309 | 1.0 | 4.0 | 0.00 | 0.06 | 0.01 | 67 | 1012.1 |
| 20260905181507 | 79 | 313 | 3.0 | 4.0 | 0.00 | 0.06 | 0.01 | 65 | 1012.3 |
| 20260905181006 | 78 | 169 | 0.0 | 5.0 | 0.00 | 0.06 | 0.01 | 65 | 1012.4 |
| 20260905180505 | 79 | 170 | 2.0 | 5.0 | 0.00 | 0.06 | 0.01 | 62 | 1012.3 |
| 20260905180008 | 80 | 67 | 1.0 | 4.0 | 0.00 | 0.06 | 0.01 | 61 | 1012.3 |
| 20260905175507 | 81 | 288 | 2.0 | 4.0 | 0.00 | 0.06 | 0.01 | 64 | 1012.5 |
| 20260905175007 | 79 | 292 | 1.0 | 6.0 | 0.00 | 0.06 | 0.01 | 67 | 1012.4 |
| 20260905174505 | 78 | 259 | 1.0 | 5.0 | 0.00 | 0.06 | 0.01 | 66 | 1012.5 |
| 20260905174006 | 79 | 300 | 4.0 | 6.0 | 0.00 | 0.06 | 0.01 | 63 | 1012.5 |
| 20260905173006 | 79 | 300 | 1.0 | 5.0 | 0.00 | 0.06 | 0.01 | 64 | 1012.6 |
| 20260905171505 | 79 | 269 | 2.0 | 5.0 | 0.00 | 0.06 | 0.01 | 67 | 1012.7 |
| 20260905171010 | 78 | 305 | 1.0 | 4.0 | 0.00 | 0.06 | 0.01 | 68 | 1012.7 |
| 20260905170506 | 79 | 304 | 2.0 | 7.0 | 0.00 | 0.06 | 0.01 | 66 | 1012.8 |
| 20260905170007 | 79 | 275 | 3.0 | 9.0 | 0.00 | 0.06 | 0.01 | 67 | 1012.8 |
| 20260905165505 | 79 | 238 | 4.0 | 9.0 | 0.00 | 0.06 | 0.01 | 65 | 1012.7 |
| 20260905165007 | 79 | 296 | 1.0 | 5.0 | 0.00 | 0.06 | 0.01 | 68 | 1012.7 |
| 20260905164505 | 78 | 295 | 3.0 | 8.0 | 0.00 | 0.06 | 0.01 | 66 | 1012.7 |
| 20260905164006 | 78 | 322 | 1.0 | 4.0 | 0.00 | 0.06 | 0.01 | 71 | 1012.8 |
| 20260905163507 | 76 | 246 | 1.0 | 3.0 | 0.00 | 0.06 | 0.01 | 76 | 1012.9 |
| 20260905163006 | 77 | 209 | 0.0 | 5.0 | 0.00 | 0.06 | 0.01 | 69 | 1013.0 |
| 20260905162505 | 79 | 316 | 1.0 | 9.0 | 0.00 | 0.06 | 0.01 | 66 | 1013.1 |
| 20260905162007 | 78 | 298 | 2.0 | 7.0 | 0.00 | 0.06 | 0.01 | 68 | 1013.1 |
| 20260905161505 | 77 | 40 | 1.0 | 4.0 | 0.00 | 0.06 | 0.01 | 69 | 1013.1 |
| 20260905161006 | 77 | 114 | 1.0 | 10.0 | 0.00 | 0.06 | 0.01 | 69 | 1013.1 |
| 20260905160008 | 77 | 285 | 0.0 | 12.0 | 0.00 | 0.06 | 0.01 | 72 | 1013.2 |
| 20260905155505 | 77 | 331 | 6.0 | 12.0 | 0.00 | 0.06 | 0.01 | 70 | 1013.2 |
| 20260905155007 | 76 | 351 | 1.0 | 5.0 | 0.00 | 0.06 | 0.01 | 74 | 1013.2 |
| 20260905154010 | 76 | 311 | 3.0 | 10.0 | 0.00 | 0.06 | 0.01 | 71 | 1013.2 |
| 20260905153512 | 76 | 296 | 0.0 | 8.0 | 0.00 | 0.06 | 0.01 | 73 | 1013.1 |
| 20260905153005 | 76 | 309 | 1.0 | 8.0 | 0.00 | 0.06 | 0.01 | 73 | 1013.1 |
| 20260905152507 | 77 | 271 | 2.0 | 8.0 | 0.00 | 0.06 | 0.01 | 74 | 1013.1 |
| 20260905152006 | 76 | 321 | 1.0 | 8.0 | 0.00 | 0.06 | 0.01 | 75 | 1013.1 |
| 20260905151504 | 76 | 277 | 0.0 | 8.0 | 0.00 | 0.06 | 0.01 | 75 | 1013.1 |
| 20260905151006 | 76 | 300 | 2.0 | 8.0 | 0.00 | 0.06 | 0.01 | 74 | 1013.2 |
| 20260905150504 | 75 | 298 | 2.0 | 8.0 | 0.00 | 0.06 | 0.01 | 76 | 1013.1 |
| 20260905145505 | 73 | 207 | 0.0 | 3.0 | 0.00 | 0.06 | 0.01 | 80 | 1013.1 |
| 20260905145005 | 73 | 188 | 0.0 | 3.0 | 0.00 | 0.06 | 0.01 | 82 | 1013.1 |
| 20260905144006 | 74 | 305 | 0.0 | 4.0 | 0.00 | 0.06 | 0.01 | 81 | 1013.0 |
| 20260905143504 | 73 | 305 | 1.0 | 4.0 | 0.00 | 0.06 | 0.01 | 79 | 1012.8 |
| 20260905143005 | 73 | 305 | 1.0 | 7.0 | 0.00 | 0.06 | 0.01 | 81 | 1013.0 |
| 20260905142506 | 73 | 272 | 2.0 | 7.0 | 0.00 | 0.06 | 0.01 | 79 | 1013.0 |
| 20260905142005 | 73 | 306 | 2.0 | 5.0 | 0.00 | 0.06 | 0.01 | 82 | 1013.1 |
| 20260905141504 | 73 | 274 | 1.0 | 3.0 | 0.00 | 0.06 | 0.01 | 83 | 1013.1 |
| 20260905141006 | 73 | 299 | 1.0 | 4.0 | 0.00 | 0.06 | 0.01 | 81 | 1013.1 |
| 20260905140005 | 73 | 296 | 1.0 | 4.0 | 0.00 | 0.06 | 0.01 | 82 | 1013.1 |
| 20260905135506 | 72 | 276 | 2.0 | 4.0 | 0.00 | 0.06 | 0.01 | 81 | 1013.0 |
| 20260905134504 | 71 | 325 | 0.0 | 3.0 | 0.00 | 0.06 | 0.01 | 83 | 1012.9 |
| 20260905134006 | 71 | 344 | 0.0 | 3.0 | 0.00 | 0.06 | 0.01 | 84 | 1013.0 |
| 20260905133005 | 71 | 310 | 1.0 | 3.0 | 0.00 | 0.06 | 0.01 | 84 | 1012.9 |
| 20260905132510 | 70 | 305 | 1.0 | 3.0 | 0.00 | 0.06 | 0.01 | 86 | 1012.8 |
| 20260905132005 | 70 | 298 | 0.0 | 3.0 | 0.00 | 0.06 | 0.01 | 86 | 1012.7 |
| 20260905131504 | 70 | 333 | 1.0 | 3.0 | 0.00 | 0.06 | 0.01 | 87 | 1012.7 |
| 20260905131006 | 70 | 269 | 0.0 | 0.0 | 0.00 | 0.06 | 0.01 | 88 | 1012.5 |
| 20260905130006 | 70 | 269 | 0.0 | 0.0 | 0.00 | 0.06 | 0.01 | 89 | 1012.7 |
| 20260905125506 | 70 | 269 | 0.0 | 0.0 | 0.00 | 0.06 | 0.01 | 89 | 1012.8 |
| 20260905125005 | 70 | 159 | 0.0 | 0.0 | 0.00 | 0.06 | 0.01 | 89 | 1012.7 |
| 20260905124507 | 69 | 159 | 0.0 | 0.0 | 0.00 | 0.06 | 0.01 | 89 | 1012.7 |
| 20260905124006 | 69 | 159 | 0.0 | 2.0 | 0.00 | 0.06 | 0.01 | 90 | 1012.8 |
| 20260905123504 | 69 | 286 | 0.0 | 3.0 | 0.00 | 0.06 | 0.01 | 90 | 1012.8 |
| 20260905123006 | 69 | 299 | 0.0 | 2.0 | 0.00 | 0.06 | 0.01 | 91 | 1012.8 |
| 20260905121505 | 69 | 276 | 0.0 | 0.0 | 0.00 | 0.06 | 0.01 | 92 | 1012.8 |
| 20260905121011 | 69 | 276 | 0.0 | 0.0 | 0.00 | 0.06 | 0.01 | 92 | 1012.8 |
| 20260905120506 | 69 | 276 | 0.0 | 3.0 | 0.00 | 0.06 | 0.01 | 93 | 1012.8 |
| 20260905120006 | 68 | 276 | 1.0 | 3.0 | 0.00 | 0.06 | 0.01 | 93 | 1012.9 |
| 20260905115507 | 68 | 276 | 0.0 | 2.0 | 0.00 | 0.06 | 0.01 | 94 | 1012.8 |
| 20260905115007 | 68 | 276 | 1.0 | 2.0 | 0.00 | 0.06 | 0.01 | 94 | 1012.7 |
| 20260905114508 | 68 | 276 | 1.0 | 2.0 | 0.00 | 0.06 | 0.01 | 94 | 1012.7 |
| 20260905114008 | 68 | 276 | 0.0 | 2.0 | 0.00 | 0.06 | 0.01 | 95 | 1012.7 |
| 20260905113505 | 68 | 275 | 0.0 | 1.0 | 0.00 | 0.06 | 0.01 | 95 | 1012.7 |
| 20260905113006 | 68 | 275 | 0.0 | 3.0 | 0.00 | 0.06 | 0.01 | 95 | 1012.6 |
| 20260905112507 | 68 | 275 | 0.0 | 3.0 | 0.00 | 0.06 | 0.01 | 95 | 1012.5 |
| 20260905112008 | 68 | 275 | 0.0 | 0.0 | 0.00 | 0.06 | 0.01 | 96 | 1012.4 |
| 20260905111505 | 68 | 275 | 0.0 | 0.0 | 0.00 | 0.06 | 0.01 | 96 | 1012.4 |
| 20260905111007 | 69 | 275 | 0.0 | 0.0 | 0.00 | 0.06 | 0.01 | 96 | 1012.4 |
| 20260905110505 | 69 | 275 | 0.0 | 0.0 | 0.00 | 0.06 | 0.01 | 96 | 1012.5 |
| 20260905110006 | 69 | 275 | 0.0 | 0.0 | 0.00 | 0.06 | 0.01 | 96 | 1012.4 |
| 20260905105505 | 69 | 275 | 0.0 | 0.0 | 0.00 | 0.06 | 0.01 | 96 | 1012.2 |
| 20260905105007 | 69 | 275 | 0.0 | 0.0 | 0.00 | 0.06 | 0.01 | 96 | 1012.2 |
| 20260905104505 | 69 | 275 | 0.0 | 0.0 | 0.00 | 0.06 | 0.01 | 96 | 1012.2 |
| 20260905104006 | 69 | 275 | 0.0 | 0.0 | 0.00 | 0.06 | 0.01 | 96 | 1012.2 |
| 20260905103505 | 69 | 275 | 0.0 | 0.0 | 0.00 | 0.06 | 0.01 | 96 | 1012.0 |
| 20260905103007 | 69 | 275 | 0.0 | 0.0 | 0.00 | 0.06 | 0.01 | 96 | 1012.1 |
| 20260905102505 | 69 | 275 | 0.0 | 0.0 | 0.00 | 0.06 | 0.01 | 96 | 1012.1 |
| 20260905102006 | 69 | 275 | 0.0 | 0.0 | 0.00 | 0.06 | 0.01 | 96 | 1012.0 |
| 20260905101504 | 69 | 275 | 0.0 | 0.0 | 0.00 | 0.06 | 0.01 | 96 | 1011.9 |
| 20260905101005 | 69 | 275 | 0.0 | 0.0 | 0.00 | 0.06 | 0.01 | 96 | 1011.9 |
| 20260905100506 | 69 | 275 | 0.0 | 0.0 | 0.00 | 0.06 | 0.01 | 96 | 1011.9 |
| 20260905100006 | 69 | 275 | 0.0 | 0.0 | 0.00 | 0.06 | 0.01 | 96 | 1011.9 |
| 20260905095504 | 69 | 275 | 0.0 | 0.0 | 0.00 | 0.06 | 0.01 | 97 | 1011.9 |
| 20260905095006 | 69 | 275 | 0.0 | 0.0 | 0.00 | 0.06 | 0.01 | 96 | 1011.8 |
| 20260905094504 | 69 | 275 | 0.0 | 0.0 | 0.00 | 0.06 | 0.01 | 96 | 1011.9 |
| 20260905094006 | 69 | 275 | 0.0 | 0.0 | 0.00 | 0.06 | 0.01 | 96 | 1011.8 |
| 20260905093505 | 69 | 276 | 0.0 | 0.0 | 0.00 | 0.06 | 0.01 | 96 | 1011.7 |
| 20260905093007 | 69 | 275 | 0.0 | 0.0 | 0.00 | 0.06 | 0.01 | 96 | 1011.8 |
| 20260905092006 | 69 | 275 | 0.0 | 2.0 | 0.00 | 0.06 | 0.01 | 96 | 1011.8 |
| 20260905091507 | 69 | 276 | 1.0 | 2.0 | 0.00 | 0.06 | 0.01 | 96 | 1011.9 |
| 20260905091008 | 70 | 276 | 0.0 | 1.0 | 0.00 | 0.06 | 0.01 | 96 | 1011.9 |
| 20260905090509 | 70 | 276 | 0.0 | 0.0 | 0.00 | 0.06 | 0.01 | 96 | 1011.8 |
| 20260905090005 | 70 | 276 | 0.0 | 0.0 | 0.00 | 0.06 | 0.01 | 96 | 1011.9 |
| 20260905085504 | 70 | 276 | 0.0 | 0.0 | 0.00 | 0.06 | 0.01 | 96 | 1011.9 |
| 20260905085008 | 70 | 276 | 0.0 | 0.0 | 0.00 | 0.06 | 0.01 | 96 | 1011.8 |
| 20260905084504 | 70 | 276 | 0.0 | 0.0 | 0.00 | 0.06 | 0.01 | 96 | 1011.8 |
| 20260905084006 | 70 | 276 | 0.0 | 0.0 | 0.00 | 0.06 | 0.01 | 96 | 1011.7 |
| 20260905083505 | 70 | 276 | 0.0 | 0.0 | 0.00 | 0.06 | 0.01 | 96 | 1011.6 |
| 20260905082504 | 70 | 276 | 0.0 | 0.0 | 0.00 | 0.06 | 0.01 | 96 | 1011.6 |
| 20260905082006 | 70 | 276 | 0.0 | 0.0 | 0.00 | 0.06 | 0.01 | 96 | 1011.7 |
| 20260905081504 | 70 | 276 | 0.0 | 0.0 | 0.00 | 0.06 | 0.01 | 96 | 1011.8 |
| 20260905081004 | 70 | 276 | 0.0 | 0.0 | 0.00 | 0.06 | 0.01 | 96 | 1011.8 |
| 20260905080505 | 70 | 276 | 0.0 | 0.0 | 0.00 | 0.06 | 0.01 | 96 | 1011.8 |
| 20260905080005 | 70 | 276 | 0.0 | 0.0 | 0.00 | 0.06 | 0.01 | 96 | 1011.8 |
| 20260905075504 | 70 | 276 | 0.0 | 0.0 | 0.00 | 0.06 | 0.01 | 96 | 1011.7 |
| 20260905075006 | 70 | 276 | 0.0 | 0.0 | 0.00 | 0.06 | 0.01 | 96 | 1011.8 |
| 20260905074504 | 70 | 276 | 0.0 | 0.0 | 0.00 | 0.06 | 0.01 | 96 | 1011.8 |
| 20260905074006 | 70 | 276 | 0.0 | 0.0 | 0.00 | 0.06 | 0.01 | 96 | 1011.8 |
| 20260905073509 | 70 | 276 | 0.0 | 0.0 | 0.00 | 0.06 | 0.01 | 96 | 1011.8 |
| 20260905073005 | 70 | 276 | 0.0 | 0.0 | 0.00 | 0.06 | 0.01 | 96 | 1011.7 |
| 20260905072504 | 70 | 276 | 0.0 | 0.0 | 0.00 | 0.06 | 0.01 | 96 | 1011.7 |
| 20260905072010 | 70 | 276 | 0.0 | 0.0 | 0.00 | 0.06 | 0.01 | 96 | 1011.8 |
| 20260905071504 | 70 | 276 | 0.0 | 0.0 | 0.00 | 0.06 | 0.01 | 96 | 1011.7 |
| 20260905071006 | 70 | 276 | 0.0 | 0.0 | 0.00 | 0.06 | 0.01 | 96 | 1011.8 |
| 20260905070505 | 70 | 276 | 0.0 | 0.0 | 0.00 | 0.06 | 0.01 | 96 | 1011.9 |
| 20260905065504 | 71 | 276 | 0.0 | 0.0 | 0.00 | 0.06 | 0.01 | 95 | 1011.9 |
| 20260905064504 | 71 | 276 | 0.0 | 0.0 | 0.00 | 0.06 | 0.01 | 95 | 1011.9 |
| 20260905064005 | 71 | 276 | 0.0 | 0.0 | 0.00 | 0.06 | 0.01 | 95 | 1011.9 |
| 20260905063506 | 71 | 276 | 0.0 | 0.0 | 0.00 | 0.06 | 0.01 | 95 | 1011.9 |
| 20260905063006 | 71 | 276 | 0.0 | 0.0 | 0.00 | 0.06 | 0.01 | 95 | 1012.0 |
| 20260905062503 | 71 | 276 | 0.0 | 0.0 | 0.00 | 0.06 | 0.01 | 95 | 1012.0 |
| 20260905062006 | 71 | 276 | 0.0 | 0.0 | 0.00 | 0.06 | 0.01 | 95 | 1012.1 |
| 20260905061504 | 71 | 276 | 0.0 | 0.0 | 0.00 | 0.06 | 0.01 | 95 | 1012.1 |
| 20260905060505 | 71 | 276 | 0.0 | 0.0 | 0.00 | 0.06 | 0.01 | 95 | 1012.3 |
| 20260905060005 | 71 | 276 | 0.0 | 0.0 | 0.00 | 0.07 | 0.01 | 95 | 1012.3 |
| 20260905055504 | 71 | 276 | 0.0 | 0.0 | 0.00 | 0.07 | 0.01 | 95 | 1012.3 |
| 20260905055006 | 71 | 276 | 0.0 | 0.0 | 0.00 | 0.07 | 0.01 | 95 | 1012.3 |
| 20260905054504 | 72 | 276 | 0.0 | 0.0 | 0.00 | 0.07 | 0.01 | 95 | 1012.3 |
| 20260905054006 | 72 | 276 | 0.0 | 0.0 | 0.00 | 0.07 | 0.01 | 95 | 1012.4 |
| 20260905053005 | 72 | 276 | 0.0 | 0.0 | 0.00 | 0.07 | 0.01 | 95 | 1012.4 |
| 20260905052504 | 72 | 276 | 0.0 | 0.0 | 0.00 | 0.07 | 0.01 | 95 | 1012.4 |
| 20260905052006 | 72 | 276 | 0.0 | 0.0 | 0.01 | 0.07 | 0.01 | 94 | 1012.4 |
| 20260905051005 | 72 | 276 | 0.0 | 0.0 | 0.01 | 0.07 | 0.01 | 95 | 1012.4 |
| 20260905050505 | 73 | 276 | 0.0 | 0.0 | 0.01 | 0.07 | 0.01 | 94 | 1012.5 |
| 20260905050006 | 73 | 276 | 0.0 | 0.0 | 0.01 | 0.14 | 0.01 | 94 | 1012.5 |
| 20260905045008 | 73 | 276 | 0.0 | 0.0 | 0.01 | 0.14 | 0.01 | 94 | 1012.6 |
| 20260905044506 | 73 | 276 | 0.0 | 0.0 | 0.01 | 0.14 | 0.01 | 94 | 1012.6 |
| 20260905044007 | 73 | 276 | 0.0 | 3.0 | 0.01 | 0.14 | 0.01 | 94 | 1012.8 |
| 20260905043506 | 74 | 276 | 0.0 | 3.0 | 0.01 | 0.14 | 0.01 | 94 | 1013.0 |
| 20260905043010 | 74 | 333 | 0.0 | 3.0 | 0.01 | 0.14 | 0.01 | 95 | 1013.0 |
| 20260905042506 | 74 | 333 | 0.0 | 3.0 | 0.01 | 0.14 | 0.01 | 95 | 1013.0 |
| 20260905041507 | 75 | 301 | 0.0 | 1.0 | 0.04 | 0.13 | 0.00 | 95 | 1012.9 |
| 20260905041008 | 75 | 301 | 0.0 | 0.0 | 0.05 | 0.13 | 0.00 | 95 | 1013.0 |
| 20260905040506 | 75 | 301 | 0.0 | 0.0 | 0.05 | 0.13 | 0.00 | 95 | 1013.0 |
| 20260905040011 | 75 | 301 | 0.0 | 0.0 | 0.05 | 0.13 | 0.00 | 95 | 1013.0 |
| 20260905035506 | 75 | 301 | 0.0 | 0.0 | 0.05 | 0.15 | 0.13 | 95 | 1012.8 |
| 20260905035006 | 75 | 301 | 0.0 | 0.0 | 0.05 | 0.15 | 0.13 | 95 | 1012.8 |
| 20260905034508 | 75 | 301 | 0.0 | 0.0 | 0.05 | 0.15 | 0.13 | 94 | 1012.8 |
| 20260905034011 | 75 | 301 | 0.0 | 0.0 | 0.05 | 0.15 | 0.13 | 94 | 1012.7 |
| 20260905033505 | 75 | 301 | 0.0 | 0.0 | 0.05 | 0.15 | 0.13 | 94 | 1012.7 |
| 20260905033008 | 75 | 301 | 0.0 | 1.0 | 0.05 | 0.15 | 0.13 | 94 | 1012.8 |
| 20260905032506 | 75 | 301 | 0.0 | 0.0 | 0.05 | 0.15 | 0.13 | 94 | 1012.8 |
| 20260905032007 | 75 | 301 | 0.0 | 1.0 | 0.03 | 0.13 | 0.11 | 94 | 1012.8 |
| 20260905031506 | 75 | 301 | 0.0 | 1.0 | 0.01 | 0.11 | 0.09 | 94 | 1012.8 |
| 20260905031009 | 75 | 301 | 0.0 | 1.0 | 0.00 | 0.10 | 0.08 | 94 | 1012.7 |
| 20260905030506 | 75 | 301 | 0.0 | 0.0 | 0.00 | 0.10 | 0.08 | 94 | 1012.6 |
| 20260905025510 | 75 | 301 | 0.0 | 0.0 | 0.00 | 0.10 | 0.08 | 94 | 1012.6 |
| 20260905025008 | 75 | 301 | 0.0 | 0.0 | 0.00 | 0.10 | 0.08 | 94 | 1012.6 |
| 20260905024506 | 75 | 301 | 0.0 | 0.0 | 0.00 | 0.10 | 0.08 | 94 | 1012.7 |
| 20260905024006 | 75 | 301 | 0.0 | 0.0 | 0.00 | 0.10 | 0.08 | 93 | 1012.6 |
| 20260905023504 | 75 | 301 | 0.0 | 0.0 | 0.00 | 0.10 | 0.08 | 93 | 1012.5 |
| 20260905023009 | 75 | 301 | 0.0 | 0.0 | 0.00 | 0.10 | 0.08 | 93 | 1012.6 |
| 20260905022505 | 75 | 301 | 0.0 | 0.0 | 0.00 | 0.10 | 0.08 | 93 | 1012.5 |
| 20260905021507 | 75 | 301 | 0.0 | 0.0 | 0.00 | 0.10 | 0.08 | 93 | 1012.6 |
| 20260905020008 | 75 | 301 | 0.0 | 0.0 | 0.00 | 0.10 | 0.08 | 92 | 1012.6 |
| 20260905015507 | 75 | 301 | 0.0 | 0.0 | 0.00 | 0.10 | 0.08 | 92 | 1012.6 |
| 20260905014506 | 76 | 301 | 0.0 | 0.0 | 0.00 | 0.10 | 0.08 | 92 | 1012.5 |
| 20260905014006 | 76 | 302 | 0.0 | 0.0 | 0.00 | 0.10 | 0.08 | 92 | 1012.5 |
| 20260905013505 | 76 | 301 | 0.0 | 0.0 | 0.00 | 0.10 | 0.08 | 91 | 1012.5 |
| 20260905013007 | 76 | 302 | 0.0 | 0.0 | 0.00 | 0.10 | 0.08 | 92 | 1012.5 |
| 20260905012506 | 76 | 302 | 0.0 | 0.0 | 0.00 | 0.10 | 0.08 | 91 | 1012.5 |
| 20260905012006 | 76 | 302 | 0.0 | 0.0 | 0.00 | 0.10 | 0.08 | 91 | 1012.6 |
| 20260905011506 | 76 | 302 | 0.0 | 0.0 | 0.00 | 0.10 | 0.08 | 91 | 1012.6 |
| 20260905011005 | 76 | 302 | 0.0 | 0.0 | 0.00 | 0.10 | 0.08 | 91 | 1012.6 |
| 20260905010506 | 76 | 302 | 0.0 | 0.0 | 0.00 | 0.10 | 0.08 | 90 | 1012.6 |
| 20260905010009 | 76 | 302 | 0.0 | 0.0 | 0.00 | 0.10 | 0.08 | 90 | 1012.7 |